Location: Arbon
(43.0005°N, 0.7472°E)
Time: 16:16:25
(UTC+00:00)

Cosmos 2333 - Pass Details

Date: 07 August 2020
Orbit: 830 x 866 km, 70.9° (Epoch: 22 September)

Event Time Altitude Azimuth Distance (km) Brightness Sun altitude
Rises 00:02:00 0° 336° (NNW) 3,458 8.3 -30.7°
Reaches altitude 10° 00:04:29 10° 337° (NNW) 2,517 7.4 -30.7°
Enters shadow 00:09:39 69° 5° (N) 924 4.4 -30.6°
